Weather History for Fort Leonard Wood, MO

Change the Weather History Date:

Thursday, September 19, 2013

  Actual Average Record
Temperature  
Mean Temperature 78 °F -  
Max Temperature 88 °F 75 °F 93 °F (2000)
Min Temperature 69 °F 57 °F 43 °F (2012)
Cooling Degree Days 13    
Growing Degree Days 28 (Base 50)    
Moisture  
Dew Point 70 °F    
Average Humidity 82    
Maximum Humidity 100    
Minimum Humidity 60    
Precipitation  
Precipitation 0.00 in - - ()
Sea Level Pressure  
Sea Level Pressure 29.97 in    
Wind  
Wind Speed 7 mph (South)    
Max Wind Speed 13 mph    
Max Gust Speed 20 mph    
Visibility 10 miles    
Events      
Averages and records for this station are not official NWS values.
T = Trace of Precipitation, MM = Missing Value Source: NWS Daily Summary

Daily Weather History Graph

Daily Weather History Graph

Search for Another Location

Airport:

Trip Planner

Search our weather history database for the weather conditions in past years. The results will help you decide how hot, cold, wet, or windy it might be!

Date:

Astronomy

Sep. 19, 2013 Rise Set
Actual Time 6:54 AM CDT 7:09 PM CDT
Civil Twilight 6:27 AM CDT 7:35 PM CDT
Nautical Twilight 5:57 AM CDT 8:06 PM CDT
Astronomical Twilight 5:25 AM CDT 8:37 PM CDT
Moon 7:09 PM CDT (9/19) 7:02 AM CDT (9/19)
Length of Visible Light 13h 08m
Length of Day
12h 15m
Full, 100% of the Moon is Illuminated
Sep 19
Full
Sep 26
Last Quarter
Oct 4
New
Oct 11
First Quarter
Oct 18
Full

Hourly Weather History & Observations

Time (CDT) Temp. Heat Index Dew Point Humidity Pressure Visibility Wind Dir Wind Speed Gust Speed Precip Events Conditions
12:58 AM 70.5 °F - 70.2 °F 99% 29.97 in 10.0 mi SSE 6.9 mph - N/A   Mostly Cloudy
1:58 AM 69.8 °F - 69.8 °F 100% 29.98 in 10.0 mi SE 6.9 mph - N/A   Partly Cloudy
2:58 AM 69.8 °F - 69.8 °F 100% 29.99 in 10.0 mi SE 6.9 mph - N/A   Overcast
3:58 AM 69.8 °F - 69.8 °F 100% 29.99 in 10.0 mi SSE 8.1 mph - N/A   Mostly Cloudy
4:58 AM 69.6 °F - 69.3 °F 99% 29.98 in 10.0 mi SSE 5.8 mph - N/A   Overcast
5:58 AM 70.0 °F - 68.7 °F 96% 29.97 in 10.0 mi SSE 6.9 mph - N/A   Mostly Cloudy
6:58 AM 71.6 °F - 67.6 °F 87% 29.98 in 10.0 mi South 8.1 mph - N/A   Overcast
7:58 AM 72.7 °F - 68.4 °F 86% 29.99 in 10.0 mi South 6.9 mph - N/A   Overcast
8:58 AM 74.1 °F - 69.4 °F 85% 29.99 in 10.0 mi South 5.8 mph - N/A   Mostly Cloudy
9:58 AM 75.9 °F - 70.5 °F 83% 30.00 in 10.0 mi South 8.1 mph - N/A   Scattered Clouds
10:56 AM 75.2 °F - 69.8 °F 83% 30.03 in 10.0 mi Variable 6.9 mph - N/A   Mostly Cloudy
10:58 AM 75.7 °F - 70.7 °F 84% 30.01 in 10.0 mi South 6.9 mph - N/A   Mostly Cloudy
11:56 AM 80.6 °F 84.6 °F 71.6 °F 74% 30.02 in 10.0 mi SSW 8.1 mph - N/A   Scattered Clouds
11:58 AM 81.1 °F 85.4 °F 71.8 °F 73% 30.00 in 10.0 mi Variable 6.9 mph - N/A   Scattered Clouds
12:56 PM 84.2 °F 90.9 °F 73.4 °F 70% 30.01 in 10.0 mi South 5.8 mph - N/A   Mostly Cloudy
1:56 PM 86.0 °F 93.4 °F 73.4 °F 66% 29.99 in 10.0 mi Variable 5.8 mph 16.1 mph N/A   Clear
2:58 PM 87.6 °F 95.2 °F 73.2 °F 62% 29.94 in 10.0 mi South 8.1 mph - N/A   Clear
3:58 PM 87.4 °F 94.0 °F 71.8 °F 60% 29.91 in 10.0 mi South 8.1 mph - N/A   Partly Cloudy
4:58 PM 86.5 °F 94.2 °F 73.4 °F 65% 29.90 in 10.0 mi SSE 10.4 mph - N/A   Partly Cloudy
5:58 PM 84.0 °F 89.9 °F 72.5 °F 68% 29.88 in 10.0 mi South 10.4 mph 18.4 mph N/A   Clear
6:58 PM 78.1 °F - 67.5 °F 70% 29.90 in 10.0 mi South 12.7 mph 19.6 mph N/A   Clear
7:58 PM 74.8 °F - 66.7 °F 76% 29.89 in 10.0 mi South 8.1 mph - N/A   Clear
9:58 PM 72.9 °F - 68.2 °F 85% 29.94 in 10.0 mi South 4.6 mph - N/A   Overcast
10:58 PM 72.0 °F - 68.5 °F 89% 29.95 in 10.0 mi South 3.5 mph - N/A   Clear
11:58 PM 70.7 °F - 69.3 °F 95% 29.94 in 10.0 mi SE 5.8 mph - N/A   Scattered Clouds